This demonstration page uses our WeatherBlox Daily Observations layout. Learn more.

Hourly Observations for December 16, 2015

Temp ( °F °C ) Dew Point ( °F °C ) Humidity (%) Winds ( mph kmh ) Pressure ( in mb ) Visibility ( mi km ) Precip ( " mm )
12:15 am 00:15 Windy with Snow Likely 26 -3.5 23 -5.2 88 88 WNW 23 37 29.59 1002 7 11.26538 0 0
12:35 am 00:35 Cloudy 25 -3.7 22 -5.6 87 87 WNW 23 37 29.62 1003 10 16.0934 0 0
12:55 am 00:55 Cloudy 26 -3.5 22 -5.5 86 86 NW 26 43 29.62 1003 10 16.0934 0 0
1:15 am 01:15 Cloudy 26 -3.5 22 -5.6 86 86 NW 22 35 29.65 1004 10 16.0934 0 0
1:35 am 01:35 Cloudy 25 -3.7 21 -6 84 84 WNW 23 37 29.65 1004 10 16.0934 0 0
1:55 am 01:55 Cloudy 24 -4.2 20 -6.6 84 84 WNW 23 37 29.65 1004 10 16.0934 0 0
2:15 am 02:15 Partly Cloudy 23 -4.9 19 -7.2 84 84 WNW 17 28 29.71 1006 10 16.0934 0 0
2:35 am 02:35 Clear 22 -5.5 18 -8 83 83 WNW 20 31 29.71 1006 10 16.0934 0 0
2:55 am 02:55 Clear 21 -6 17 -8.6 82 82 WNW 17 28 29.74 1007 10 16.0934 0 0
3:15 am 03:15 Clear 21 -6 16 -8.8 81 81 WNW 17 28 29.74 1007 10 16.0934 0 0
3:35 am 03:35 Clear 21 -6.1 16 -9 80 80 WNW 16 26 29.74 1007 10 16.0934 0 0
3:55 am 03:55 Clear 21 -6 16 -9 80 80 WNW 16 26 29.74 1007 10 16.0934 0 0
4:15 am 04:15 Clear 22 -5.8 16 -9 78 78 WNW 18 30 29.77 1008 10 16.0934 0 0
4:35 am 04:35 Clear 22 -5.8 16 -9.1 78 78 WNW 16 26 29.77 1008 10 16.0934 0 0
4:55 am 04:55 Clear 22 -5.7 16 -9 78 78 WNW 14 22 29.77 1008 10 16.0934 0 0
5:15 am 05:15 Clear 22 -5.5 16 -8.8 78 78 WNW 16 26 29.77 1008 10 16.0934 0 0
5:35 am 05:35 Clear 23 -5.2 17 -8.6 77 77 WNW 20 31 29.8 1009 10 16.0934 0 0
5:55 am 05:55 Clear 21 -5.9 16 -8.9 80 80 W 13 20 29.8 1009 10 16.0934 0 0
6:15 am 06:15 Clear 20 -6.6 16 -9.1 83 83 W 13 20 29.83 1010 10 16.0934 0 0
6:35 am 06:35 Clear 22 -5.3 17 -8.3 80 80 WNW 16 26 29.83 1010 10 16.0934 0 0
6:55 am 06:55 Clear 24 -4.7 17 -8.3 76 76 WNW 17 28 29.83 1010 10 16.0934 0 0
7:15 am 07:15 Clear 23 -4.8 17 -8.3 77 77 WNW 15 24 29.83 1010 10 16.0934 0 0
7:35 am 07:35 Clear 24 -4.5 17 -8.1 76 76 WNW 15 24 29.83 1010 10 16.0934 0 0
7:55 am 07:55 Sunny 24 -4.7 18 -8 78 78 WNW 14 22 29.83 1010 10 16.0934 0 0
8:15 am 08:15 Sunny 24 -4.2 18 -7.8 76 76 NW 15 24 29.85 1011 10 16.0934 0 0
8:35 am 08:35 Sunny 25 -4 18 -7.7 76 76 WNW 14 22 29.85 1011 10 16.0934 0 0
8:55 am 08:55 Sunny 25 -3.8 19 -7.5 76 76 WNW 15 24 29.85 1011 10 16.0934 0 0
9:15 am 09:15 Sunny 26 -3.2 20 -6.8 76 76 WNW 15 24 29.85 1011 10 16.0934 0 0
9:35 am 09:35 Sunny 28 -2.3 20 -6.4 74 74 WNW 15 24 29.85 1011 10 16.0934 0 0
9:55 am 09:55 Sunny 27 -2.9 20 -6.5 77 77 W 12 19 29.88 1012 10 16.0934 0 0
10:15 am 10:15 Sunny 29 -1.6 21 -6 72 72 WNW 17 28 29.88 1012 10 16.0934 0 0
10:35 am 10:35 Sunny 30 -1.2 21 -5.9 71 71 WNW 20 31 29.88 1012 10 16.0934 0 0
10:55 am 10:55 Sunny 30 -0.9 21 -5.9 69 69 NW 21 33 29.88 1012 10 16.0934 0 0
11:15 am 11:15 Sunny 31 -0.6 22 -5.6 69 69 WNW 18 30 29.88 1012 10 16.0934 0 0
11:35 am 11:35 Sunny 31 -0.5 22 -5.5 69 69 WNW 15 24 29.88 1012 10 16.0934 0 0
11:55 am 11:55 Sunny 31 -0.5 22 -5.4 70 70 WNW 16 26 29.88 1012 10 16.0934 0 0
12:15 pm 12:15 Sunny 31 -0.4 22 -5.4 69 69 WNW 18 30 29.88 1012 10 16.0934 0 0
12:35 pm 12:35 Sunny 32 0 23 -5 69 69 WNW 12 19 29.88 1012 10 16.0934 0 0
12:55 pm 12:55 Sunny 32 0 23 -4.8 70 70 W 14 22 29.88 1012 10 16.0934 0 0
1:15 pm 13:15 Sunny 32 0 23 -4.8 70 70 W 15 24 29.88 1012 10 16.0934 0 0
1:35 pm 13:35 Partly Cloudy 32 0 24 -4.7 71 71 WNW 17 28 29.88 1012 10 16.0934 0 0
1:55 pm 13:55 Mostly Cloudy 32 0 23 -5 69 69 WNW 21 33 29.88 1012 10 16.0934 0 0
2:15 pm 14:15 Partly Cloudy 32 0 23 -5.2 68 68 WNW 16 26 29.88 1012 10 16.0934 0 0
2:35 pm 14:35 Sunny 32 0.1 23 -5.1 68 68 WNW 17 28 29.88 1012 10 16.0934 0 0
2:55 pm 14:55 Sunny 32 0.1 22 -5.6 66 66 WNW 18 30 29.88 1012 10 16.0934 0 0
3:15 pm 15:15 Sunny 32 0.2 23 -5.1 68 68 WNW 13 20 29.88 1012 10 16.0934 0 0
3:35 pm 15:35 Sunny 32 0.2 24 -4.5 71 71 WNW 12 19 29.88 1012 10 16.0934 0 0
3:55 pm 15:55 Sunny 32 0.2 23 -5 68 68 WNW 10 17 29.88 1012 10 16.0934 0 0
4:15 pm 16:15 Sunny 32 0.1 24 -4.5 72 72 W 9 15 29.88 1012 10 16.0934 0 0
4:35 pm 16:35 Sunny 32 0 24 -4.6 71 71 W 10 17 29.88 1012 10 16.0934 0 0
4:55 pm 16:55 Sunny 32 -0.2 23 -4.8 71 71 W 8 13 29.91 1013 10 16.0934 0 0
5:15 pm 17:15 Clear 30 -1 23 -5 75 75 W 8 13 29.91 1013 10 16.0934 0 0
5:35 pm 17:35 Clear 29 -1.6 23 -5 78 78 W 8 13 29.91 1013 10 16.0934 0 0
5:55 pm 17:55 Clear 29 -1.6 23 -5.2 77 77 W 9 15 29.91 1013 10 16.0934 0 0
6:15 pm 18:15 Clear 29 -1.6 22 -5.3 76 76 W 9 15 29.91 1013 10 16.0934 0 0
6:35 pm 18:35 Clear 29 -1.9 22 -5.5 77 77 W 9 15 29.91 1013 10 16.0934 0 0
6:55 pm 18:55 Clear 27 -2.6 22 -5.8 79 79 WNW 8 13 29.97 1015 10 16.0934 0 0
7:15 pm 19:15 Clear 27 -3 21 -6.1 79 79 WNW 8 13 29.97 1015 10 16.0934 0 0
7:35 pm 19:35 Clear 27 -2.6 21 -6.2 77 77 WNW 8 13 30 1016 10 16.0934 0 0
7:55 pm 19:55 Clear 26 -3.1 20 -6.6 77 77 WNW 6 9 30 1016 10 16.0934 0 0
8:15 pm 20:15 Clear 24 -4.6 19 -7.3 82 82 WNW 6 9 30.03 1017 10 16.0934 0 0
8:35 pm 20:35 Clear 24 -4.6 19 -7.3 82 82 NW 5 7 30.03 1017 10 16.0934 0 0
8:55 pm 20:55 Clear 23 -5 19 -7.5 83 83 WNW 3 6 30.03 1017 10 16.0934 0 0
9:15 pm 21:15 Clear 23 -5.1 18 -7.6 83 83 NW 6 9 30.06 1018 10 16.0934 0 0
9:35 pm 21:35 Clear 24 -4.3 19 -7 82 82 NNW 10 17 30.03 1017 10 16.0934 0 0
9:55 pm 21:55 Clear 25 -4 19 -7.1 79 79 NNW 9 15 30.03 1017 10 16.0934 0 0
10:15 pm 22:15 Clear 25 -4.1 19 -7.2 79 79 NNW 7 11 30.03 1017 10 16.0934 0 0
10:35 pm 22:35 Clear 24 -4.7 18 -7.6 80 80 NNW 7 11 30.06 1018 10 16.0934 0 0
10:55 pm 22:55 Clear 23 -4.9 18 -7.7 81 81 NNW 7 11 30.06 1018 10 16.0934 0 0
11:15 pm 23:15 Clear 23 -5 18 -7.9 80 80 NNW 7 11 30.09 1019 10 16.0934 0 0
11:35 pm 23:35 Clear 22 -5.3 18 -8 82 82 NNW 8 13 30.09 1019 10 16.0934 0 0
11:55 pm 23:55 Clear 22 -5.3 18 -8 82 82 NNW 7 11 30.09 1019 10 16.0934 0 0

Powered by AerisWeather